[[{"header":{"parameterUnit":"m.s-1","parameterCategory":1,"la1":30.2991,"la2":30.254,"lo1":-89.0895,"lo2":-89.0444,"dy":0.0017,"dx":0.0017,"nx":28,"ny":28,"refTime":"2023-11-04T09:00:00:Z","depth":0,"parameterNumber":2,"parameterNumberName":"U-component_of_WINDS"},"data":[0,0,0,0,0,0,0,0,0,0,0,0,0,0,0,0,0,0,0,0,0,0,0,0,0,0,0,0,0,0,0,0,0,0,0,0,0,0,0,0,0,0,0,0,0,0,0,0,0,0,0,0,0,0,0,0,0,0,-0.632,-0.632,0,-0.6333,-0.6333,-0.6333,-0.6281,-0.6279,-0.6278,-0.6276,-0.6291,-0.6293,-0.6295,0,0,0,0,0,0,0,0,0,0,0,0,0,-0.6251,-0.6253,-0.632,-0.632,-0.632,-0.6333,-0.6333,-0.6333,-0.6281,-0.6279,-0.6277,-0.6276,-0.6291,-0.6293,-0.6295,0,0,0,0,0,0,0,0,0,0,0,0,0,-0.6274,-0.6253,-0.632,-0.6296,-0.6294,-0.6333,-0.6333,-0.6333,-0.6282,-0.6279,-0.6277,-0.6275,-0.629,-0.6293,-0.6295,-0.6359,0,0,-0.6304,-0.6305,0,0,0,0,0,0,0,0,-0.6273,-0.6277,-0.6299,-0.6297,-0.6295,-0.6303,-0.6314,-0.6342,-0.6282,-0.6286,-0.6276,-0.6274,-0.6297,-0.6299,-0.6307,-0.6359,-0.636,-0.6304,-0.6306,-0.6307,-0.6308,0,0,0,0,0,0,0,-0.6272,-0.6276,-0.6325,-0.63,-0.6297,-0.6285,-0.6285,-0.6319,-0.6305,-0.6286,-0.6282,-0.6284,-0.6296,-0.6304,-0.6307,-0.636,-0.6304,-0.6306,-0.6308,-0.6309,-0.6466,-0.6468,0,0,0,0,0,0,-0.6273,-0.6275,-0.6325,-0.6325,-0.6278,-0.6288,-0.6289,-0.6303,-0.6304,-0.6302,-0.6286,-0.6282,-0.6301,-0.6304,-0.6307,-0.6382,-0.6307,-0.6309,-0.6311,-0.6464,-0.6467,-0.6469,0,0,0,0,0,0,-0.6272,-0.6278,-0.6324,-0.6299,-0.6304,-0.6291,-0.6308,-0.6304,-0.6313,-0.6304,-0.6302,-0.6298,-0.6299,-0.6303,-0.6346,-0.6382,-0.6311,-0.6313,-0.6461,-0.6465,-0.6468,-0.6533,0,0,0,0,0,0,-0.627,-0.6278,-0.6302,-0.63,-0.6306,-0.6363,-0.631,-0.6306,-0.6317,-0.6312,-0.6314,-0.6313,-0.6297,-0.6342,-0.6349,-0.6385,-0.6315,-0.6457,-0.6462,-0.6467,-0.6528,-0.6538,-0.6548,0,0,0,0,0,-0.6268,-0.632,-0.6303,-0.6309,-0.6335,-0.6365,-0.6369,-0.635,-0.6321,-0.6345,-0.6339,-0.6312,-0.6376,-0.6347,-0.6354,-0.6391,-0.6455,-0.6461,-0.6466,-0.6523,-0.6536,-0.6547,0,0,0,0,0,0,-0.6327,-0.6319,-0.6301,-0.6354,-0.636,-0.6356,-0.6387,-0.6364,-0.638,-0.6374,-0.635,-0.6351,-0.6399,-0.6399,-0.6366,-0.6453,-0.6411,-0.6418,-0.6451,-0.6464,-0.6474,-0.6474,-0.6318,0,0,0,0,0,-0.6346,-0.637,-0.6362,-0.641,-0.6414,-0.64,-0.6412,-0.6397,-0.6403,-0.6406,-0.6404,-0.6411,-0.6433,-0.6448,-0.6467,-0.6526,-0.6527,-0.6555,-0.6565,-0.6573,-0.6581,-0.6613,-0.6625,-0.6488,-0.6488,-0.6488,0,0,-0.6386,-0.6384,-0.6402,-0.6422,-0.6425,-0.6452,-0.6403,-0.6433,-0.6453,-0.6411,-0.6452,-0.645,-0.6457,-0.6508,-0.6531,-0.651,-0.6618,-0.658,-0.6587,-0.659,-0.662,-0.6633,-0.6644,-0.6492,-0.6491,-0.649,0,0,-0.6473,-0.6473,-0.6514,-0.6518,-0.6523,-0.6513,-0.6523,-0.6522,-0.6519,-0.6559,-0.6528,-0.6551,-0.6589,-0.6595,-0.6604,-0.6691,-0.6668,-0.6698,-0.6752,-0.6783,-0.6794,-0.6804,-0.6837,-0.6849,-0.6705,-0.6705,-0.6705,0,-0.6522,-0.6561,-0.6537,-0.657,-0.658,-0.6541,-0.6582,-0.6587,-0.6599,-0.6608,-0.6583,-0.663,-0.6631,-0.6684,-0.6706,-0.6713,-0.6724,-0.6699,-0.6794,-0.6804,-0.6812,-0.6843,-0.6856,-0.6709,-0.6709,-0.6708,-0.6708,0,-0.6622,-0.6649,-0.668,-0.6692,-0.6706,-0.6742,-0.6725,-0.6741,-0.6724,-0.6716,-0.6758,-0.6758,-0.6778,-0.6788,-0.6772,-0.6839,-0.6826,-0.6798,-0.6756,-0.683,-0.6859,-0.687,-0.6715,-0.6713,-0.6712,-0.6711,0,0,-0.6749,-0.6746,-0.6758,-0.6763,-0.6766,-0.6787,-0.6821,-0.6839,-0.6854,-0.6863,-0.6892,-0.6924,-0.6898,-0.6908,-0.6892,-0.6919,-0.699,-0.6888,-0.6888,-0.6909,-0.7065,-0.7088,-0.7102,-0.6973,-0.6975,-0.6977,-0.7065,0,-0.6836,-0.6894,-0.6874,-0.6934,-0.6959,-0.6923,-0.6952,-0.6958,-0.6951,-0.6972,-0.6964,-0.6988,-0.6951,-0.6957,-0.6982,-0.6976,-0.7022,-0.6969,-0.7002,-0.7003,-0.7004,-0.7117,-0.7141,-0.7224,-0.7076,-0.7078,-0.7079,0,-0.6945,-0.6958,-0.7021,-0.7019,-0.7029,-0.7056,-0.7071,-0.7091,-0.7096,-0.7089,-0.7099,-0.7076,-0.711,-0.7066,-0.7113,-0.7078,-0.709,-0.7089,-0.7091,-0.7096,-0.7048,-0.7126,-0.725,-0.7264,-0.7097,-0.7095,-0.7094,0,-0.7034,-0.7067,-0.7109,-0.7114,-0.7112,-0.7132,-0.7133,-0.7135,-0.7147,-0.716,-0.7167,-0.7184,-0.7194,-0.7207,-0.719,-0.7159,-0.7241,-0.7195,-0.7237,-0.7238,-0.7258,-0.7258,-0.7388,-0.7262,-0.7262,-0.7261,-0.7261,0,-0.7135,-0.7175,-0.7149,-0.7175,-0.7219,-0.7194,-0.7239,-0.7235,-0.7237,-0.7262,-0.723,-0.7254,-0.7229,-0.7251,-0.7238,-0.728,-0.7284,-0.728,-0.7277,-0.7285,-0.7285,-0.7294,-0.7289,-0.7265,-0.7264,-0.7263,-0.7263,0,-0.7243,-0.7227,-0.727,-0.7264,-0.7264,-0.7297,-0.7292,-0.7316,-0.7306,-0.7338,-0.7344,-0.7329,-0.7353,-0.7337,-0.7361,-0.7352,-0.7408,-0.7395,-0.7406,-0.7404,-0.7448,-0.7445,-0.7591,-0.7609,-0.7469,-0.747,-0.7471,0,-0.731,-0.734,-0.7337,-0.7351,-0.7353,-0.7376,-0.7388,-0.7364,-0.7378,-0.7385,-0.7409,-0.743,-0.7446,-0.7486,-0.7478,-0.7496,-0.7485,-0.7535,-0.7488,-0.7495,-0.7488,-0.7488,-0.7491,-0.7545,-0.7547,-0.7548,-0.7549,0,-0.7431,-0.7421,-0.7439,-0.7454,-0.7469,-0.748,-0.7488,-0.7502,-0.7477,-0.7495,-0.7519,-0.7531,-0.7555,-0.7577,-0.7592,-0.7592,-0.7568,-0.7563,-0.7575,-0.7585,-0.7591,-0.759,-0.7435,-0.7561,-0.756,-0.7559,-0.7558,-0.7558,-0.7522,-0.7547,-0.7549,-0.757,-0.7573,-0.7582,-0.7604,-0.7596,-0.7616,-0.7634,-0.7618,-0.7647,-0.765,-0.7668,-0.7671,-0.7694,-0.7674,-0.7689,-0.7694,-0.7699,-0.7706,-0.7585,-0.7696,-0.7696,-0.7695,-0.7695,-0.7695,0,-0.7643,-0.7641,-0.7661,-0.7673,-0.769,-0.7663,-0.767,-0.7687,-0.7713,-0.7717,-0.7733,-0.7761,-0.7781,-0.7774,-0.7793,-0.7812,-0.7801,-0.7818,-0.7818,-0.7819,-0.7722,-0.7711,-0.7827,-0.7827,-0.7827,-0.7827,-0.7827,-0.7827,-0.7708,-0.7749,-0.7739,-0.7782,-0.7781,-0.7809,-0.7815,-0.7823,-0.7827,-0.7859,-0.7876,-0.787,-0.787,-0.7888,-0.7906,-0.7903,-0.7913,-0.7934,-0.7928,-0.7838,-0.7825,-0.7813,-0.7803,-0.7936,-0.7936,-0.8023,-0.8024,-0.8024]},{"header":{"parameterUnit":"m.s-1","parameterCategory":1,"la1":30.2991,"la2":30.254,"lo1":-89.0895,"lo2":-89.0444,"dy":0.0017,"dx":0.0017,"nx":28,"ny":28,"refTime":"2023-11-04T09:00:00:Z","depth":0,"parameterNumber":3,"parameterNumberName":"V-component_of_WINDS"},"data":[0,0,0,0,0,0,0,0,0,0,0,0,0,0,0,0,0,0,0,0,0,0,0,0,0,0,0,0,0,0,0,0,0,0,0,0,0,0,0,0,0,0,0,0,0,0,0,0,0,0,0,0,0,0,0,0,0,0,-1.3776,-1.3777,0,-1.3867,-1.3868,-1.3869,-1.3915,-1.3915,-1.3915,-1.3915,-1.4007,-1.4009,-1.4012,0,0,0,0,0,0,0,0,0,0,0,0,0,-1.364,-1.3642,-1.3776,-1.3777,-1.3778,-1.3867,-1.3868,-1.3869,-1.3915,-1.3915,-1.3915,-1.3915,-1.4006,-1.4009,-1.4012,0,0,0,0,0,0,0,0,0,0,0,0,0,-1.3712,-1.3643,-1.3776,-1.3812,-1.3816,-1.3867,-1.3868,-1.387,-1.3915,-1.3915,-1.3915,-1.3915,-1.4005,-1.4009,-1.4012,-1.4034,0,0,-1.4023,-1.4025,0,0,0,0,0,0,0,0,-1.3708,-1.3717,-1.3805,-1.3809,-1.3814,-1.388,-1.3854,-1.3925,-1.3915,-1.3877,-1.3915,-1.3915,-1.3964,-1.3971,-1.3988,-1.4038,-1.4042,-1.4024,-1.4026,-1.4027,-1.4028,0,0,0,0,0,0,0,-1.3703,-1.3713,-1.3812,-1.3807,-1.3812,-1.3823,-1.3833,-1.3868,-1.3919,-1.3881,-1.3884,-1.3894,-1.3967,-1.3985,-1.3991,-1.4043,-1.4023,-1.4027,-1.4029,-1.403,-1.4115,-1.4115,0,0,0,0,0,0,-1.3692,-1.3709,-1.3809,-1.3815,-1.376,-1.3825,-1.3837,-1.3859,-1.3919,-1.3929,-1.3894,-1.3896,-1.3979,-1.3987,-1.3994,-1.4023,-1.4027,-1.4031,-1.4033,-1.4115,-1.4115,-1.4115,0,0,0,0,0,0,-1.3689,-1.3701,-1.3805,-1.3763,-1.3777,-1.3828,-1.3852,-1.386,-1.3878,-1.393,-1.3939,-1.3903,-1.3979,-1.3989,-1.4024,-1.4027,-1.4032,-1.4036,-1.4115,-1.4115,-1.4115,-1.4082,0,0,0,0,0,0,-1.3685,-1.3699,-1.3708,-1.3763,-1.3779,-1.3834,-1.3852,-1.3862,-1.3885,-1.3888,-1.394,-1.3949,-1.398,-1.4018,-1.4027,-1.4032,-1.4038,-1.4114,-1.4115,-1.4115,-1.4083,-1.4081,-1.4079,0,0,0,0,0,-1.368,-1.3695,-1.3708,-1.372,-1.3791,-1.3834,-1.3843,-1.3879,-1.3885,-1.3894,-1.3927,-1.3947,-1.4025,-1.4021,-1.4032,-1.4038,-1.4114,-1.4115,-1.4115,-1.4084,-1.4081,-1.4079,0,0,0,0,0,0,-1.3639,-1.3703,-1.3718,-1.3752,-1.3787,-1.3841,-1.3854,-1.3875,-1.3909,-1.391,-1.3952,-1.3964,-1.3994,-1.402,-1.4014,-1.4062,-1.4072,-1.4074,-1.4044,-1.4042,-1.4041,-1.4034,-1.4041,0,0,0,0,0,-1.3634,-1.3664,-1.3718,-1.3742,-1.3759,-1.3803,-1.3823,-1.3847,-1.3885,-1.39,-1.3936,-1.3971,-1.4004,-1.4025,-1.4057,-1.4086,-1.4098,-1.4096,-1.4094,-1.4092,-1.4094,-1.4111,-1.4111,-1.4115,-1.4115,-1.4115,0,0,-1.3624,-1.3662,-1.3679,-1.3734,-1.3765,-1.3794,-1.3816,-1.3846,-1.3868,-1.3905,-1.394,-1.3967,-1.4009,-1.4041,-1.4057,-1.4063,-1.4095,-1.4092,-1.4091,-1.4093,-1.4111,-1.4111,-1.411,-1.4115,-1.4115,-1.4115,0,0,-1.3621,-1.3653,-1.3677,-1.3706,-1.3752,-1.3782,-1.3787,-1.3839,-1.3858,-1.3894,-1.3922,-1.3949,-1.4004,-1.4033,-1.4055,-1.4062,-1.4082,-1.4072,-1.4062,-1.4078,-1.4078,-1.4078,-1.408,-1.4081,-1.4073,-1.4073,-1.4073,0,-1.3602,-1.3648,-1.3686,-1.3715,-1.3738,-1.3773,-1.3798,-1.3824,-1.3878,-1.3893,-1.39,-1.397,-1.4001,-1.404,-1.4042,-1.4058,-1.4066,-1.4066,-1.4075,-1.4075,-1.4076,-1.4079,-1.4079,-1.4071,-1.4072,-1.4072,-1.4072,0,-1.3623,-1.3654,-1.3668,-1.3719,-1.3745,-1.377,-1.3812,-1.3832,-1.3854,-1.3883,-1.3919,-1.3957,-1.3998,-1.4009,-1.4031,-1.4051,-1.4054,-1.4067,-1.4078,-1.4073,-1.4076,-1.4078,-1.4069,-1.407,-1.407,-1.4071,0,0,-1.3597,-1.3669,-1.3674,-1.3697,-1.375,-1.3775,-1.3802,-1.3843,-1.386,-1.3895,-1.3919,-1.3965,-1.3977,-1.4002,-1.4027,-1.4041,-1.4045,-1.4053,-1.4055,-1.405,-1.407,-1.406,-1.4061,-1.4058,-1.4058,-1.4059,-1.4066,0,-1.3601,-1.3653,-1.3688,-1.3725,-1.3754,-1.3788,-1.3812,-1.3846,-1.3874,-1.3902,-1.3932,-1.3964,-1.3978,-1.3993,-1.4009,-1.4041,-1.4049,-1.4041,-1.408,-1.4081,-1.4069,-1.4062,-1.4052,-1.4057,-1.4068,-1.4068,-1.4068,0,-1.3613,-1.3649,-1.3689,-1.3739,-1.3752,-1.3773,-1.3813,-1.384,-1.3879,-1.3898,-1.3926,-1.3951,-1.3981,-1.3989,-1.4031,-1.4024,-1.4042,-1.406,-1.4062,-1.4067,-1.4075,-1.4068,-1.406,-1.4061,-1.4071,-1.4071,-1.407,0,-1.3591,-1.3648,-1.368,-1.3699,-1.3757,-1.3771,-1.3796,-1.3836,-1.3858,-1.3893,-1.3908,-1.3945,-1.3966,-1.3994,-1.4028,-1.4031,-1.4066,-1.4077,-1.4083,-1.4082,-1.4089,-1.4088,-1.4084,-1.41,-1.41,-1.41,-1.41,0,-1.3592,-1.3615,-1.367,-1.369,-1.3717,-1.3756,-1.3782,-1.3809,-1.3844,-1.387,-1.3901,-1.3923,-1.3968,-1.3996,-1.4023,-1.4053,-1.4062,-1.4078,-1.4085,-1.4076,-1.4073,-1.4088,-1.4089,-1.41,-1.41,-1.41,-1.41,0,-1.3571,-1.3609,-1.3646,-1.3698,-1.3712,-1.3729,-1.3774,-1.3794,-1.3823,-1.3854,-1.3864,-1.3909,-1.3944,-1.3981,-1.4028,-1.4046,-1.4075,-1.4085,-1.4062,-1.4066,-1.4069,-1.4068,-1.4075,-1.4078,-1.4091,-1.4091,-1.4091,0,-1.357,-1.3589,-1.3643,-1.3662,-1.3687,-1.3717,-1.374,-1.3779,-1.3801,-1.3848,-1.3862,-1.3899,-1.3931,-1.3985,-1.4021,-1.4057,-1.4068,-1.4068,-1.4074,-1.4064,-1.4069,-1.4067,-1.4069,-1.4066,-1.4066,-1.4066,-1.4065,0,-1.3563,-1.3581,-1.3613,-1.3651,-1.3678,-1.371,-1.3743,-1.3757,-1.3802,-1.3826,-1.3862,-1.3887,-1.3935,-1.3971,-1.4012,-1.4037,-1.4059,-1.4063,-1.4067,-1.4057,-1.4043,-1.4051,-1.4057,-1.4063,-1.4063,-1.4063,-1.4064,-1.4064,-1.3552,-1.3571,-1.3612,-1.3646,-1.3675,-1.3706,-1.3727,-1.3759,-1.379,-1.3832,-1.3853,-1.3889,-1.3928,-1.3985,-1.4009,-1.4037,-1.4044,-1.4049,-1.405,-1.405,-1.4048,-1.4038,-1.4045,-1.4045,-1.4045,-1.4045,-1.4045,0,-1.3547,-1.3575,-1.3607,-1.3652,-1.3679,-1.3698,-1.3736,-1.3757,-1.3788,-1.3823,-1.3853,-1.3895,-1.393,-1.3969,-1.4007,-1.4022,-1.4033,-1.403,-1.403,-1.4035,-1.404,-1.4033,-1.4021,-1.4021,-1.4021,-1.4021,-1.4021,-1.4021,-1.3548,-1.358,-1.3602,-1.3649,-1.3677,-1.3713,-1.3733,-1.3761,-1.3788,-1.3833,-1.3863,-1.3888,-1.3925,-1.3965,-1.3998,-1.4009,-1.4021,-1.4016,-1.4029,-1.4033,-1.4035,-1.4037,-1.4031,-1.4018,-1.4018,-1.4023,-1.4023,-1.4023]}]]